Regional Weather Roundup
Issued by NWS

Home | Current Version | Previous Version | Graphics & Text | Print | Product List | Glossary On
Versions: 1 2 3 4 5 6 7 8 9 10 11 12 13 14 15 16 17 18 19 20 21 22 23 24 25 26 27 28
000
ASUS45 KTFX 221610
RWRMT
MONTANA REGIONAL WEATHER ROUNDUP
NATIONAL WEATHER SERVICE GREAT FALLS MT
1000 AM MDT SUN OCT 22 2017

NOTE: "FAIR" INDICATES FEW OR NO CLOUDS BELOW 12000 FEET WITH NO
SIGNIFICANT WEATHER AND/OR OBSTRUCTIONS TO VISIBILITY.

MTZ001>007-043-221700-
WEST OF THE DIVIDE

CITY           SKY/WX    TMP DP  RH WIND       PRES   REMARKS
KALISPELL      CLOUDY    47  43  86 SE15G24   29.75S
MISSOULA       CLOUDY    50  41  71 S9        29.89R
BUTTE          CLOUDY    49  35  58 W14G28    29.99R
MULLAN PASS    HVY RAIN  38  38 100 NW14G28   29.82R VSB 3/4 WCI  30
ANACONDA         N/A     46  36  66 S26G38    29.93R
DEER LODGE       N/A     50  37  62 SW18G25   29.90R
EUREKA           N/A     48  41  76 MISG      29.69R
HAMILTON         N/A     46  43  87 S7        29.95R
LIBBY            N/A     39  39 100 SE8       29.74R
$$

MTZ008-052>055-221700-
SOUTHWEST MONTANA

CITY           SKY/WX    TMP DP  RH WIND       PRES   REMARKS
BOZEMAN        CLOUDY    56  32  40 SW29G38   29.93R
DILLON         CLOUDY    52  30  43 SW16      30.02R
W YELLOWSTONE  CLOUDY    34  34 100 VRB5      30.18R FOG
ENNIS          CLOUDY    48  32  53 S25G31    30.09R
THREE FORKS      N/A     54  31  41 S22       29.93S
$$

MTZ009-010-012-014-046-048-049-054-221700-
EAST SLOPES AND CENTRAL MONTANA

CITY           SKY/WX    TMP DP  RH WIND       PRES   REMARKS
CUT BANK       MOSUNNY   49  36  61 SW21G28   29.66R
GREAT FALLS    CLOUDY    54  35  48 SW26G40   29.73S
MALMSTROM AFB  CLOUDY    54  37  52 SW22G35   29.72F
HELENA         CLOUDY    57  36  45 SW21G35   29.86R
BOWMANS CRNR   DRIZZLE   45  38  77 SW26G36   29.76F
CHOTEAU          N/A     52  37  58 SW15      29.75F
FAIRFIELD        N/A     49  36  59 SW18      29.74R
POWER            N/A     49  35  59 SW25G32   29.70S
RAYNESFORD     CLOUDY    56  33  42 W35G44    29.74R
ULM              N/A     55  36  49 SW32G40   29.75R
$$

MTZ011-013-016-021-045-047-050-051-221700-
NORTH CENTRAL MONTANA

CITY           SKY/WX    TMP DP  RH WIND       PRES   REMARKS
HAVRE          CLOUDY    55  37  50 SW30G37   29.58S
LEWISTOWN      CLOUDY    55  33  43 SW35G47   29.75S
N BAR RANCH      N/A     55  30  38 W25G33    29.76R
CHINOOK          N/A     57  37  47 SW22G35   29.59S
DENTON         PTSUNNY   58  34  40 W26G36    29.67S
GEYSER         PTSUNNY   57  32  39 W31G44    29.72R
GRASS RANGE    PTSUNNY   58  32  37 W32G46    29.68R
JUDITH GAP     PTSUNNY   51  31  46 SW35G44   29.78F
WINIFRED       CLOUDY    55  33  43 W17G26    29.69R
$$

MTZ017>020-022>027-061-062-221700-
NORTHEAST MONTANA

CITY           SKY/WX    TMP DP  RH WIND       PRES   REMARKS
GLASGOW        LGT RAIN  48  36  63 SW7       29.63F
JORDAN           N/A     57  32  38 SW25G35   29.67F
SIDNEY         CLOUDY    42  25  50 S13       29.71F
WOLF POINT     CLOUDY    42  28  57 CALM      29.67S
MALTA          SUNNY     50  36  57 W7        29.61S
PLENTYWOOD       N/A     37  27  65 S13G20    29.67R WCI  29
POPLAR           N/A     45  28  53 SW3       29.67S
$$

MTZ028>42-056>058-221700-
SOUTHCENTRAL AND SOUTHEAST MONTANA

CITY           SKY/WX    TMP DP  RH WIND       PRES   REMARKS
BAKER          CLOUDY    52  24  33 SW23G29   29.79F
BILLINGS       CLOUDY    54  28  36 W17       29.86R
LIVINGSTON     CLOUDY    53  32  44 SW48G61   29.86F
MILES CITY     CLOUDY    45  29  53 S12       29.76F
BIG TIMBER     MOSUNNY   54  30  40 W33G43    29.88R
FORSYTH          N/A     57  27  30 SW15G25   29.77F
HARLOWTON        N/A     56  32  38 W32G44    29.80R
LAUREL           N/A     54  27  35 SW12      29.87F
$$

REGIONAL REPORTS...DAKOTAS

CITY           SKY/WX    TMP DP  RH WIND       PRES   REMARKS
WILLISTON      CLOUDY    40  27  59 SW7       29.70F
MINOT          SUNNY     49  29  46 S13       29.71F
DICKINSON      CLOUDY    50  21  32 SW20G28   29.76S
BEACH          PTSUNNY   50  21  32 SW20      29.77F
CROSBY           N/A     39  27  60 S17       29.66F WCI  30
TIOGA          PTSUNNY   41  25  52 SW18      29.69F
BISMARCK       SUNNY     50  27  40 SW7       29.84F
GRAND FORKS    SUNNY     53  34  48 SW12      29.82F
FARGO          SUNNY     50  34  54 SW13      29.89S
BUFFALO SD       N/A     52  21  29 SW21      29.78F
RAPID CITY     SUNNY     48  22  35 VRB6      29.95R
$$

REGIONAL REPORTS...WYOMING/IDAHO/WASHINGTON

CITY           SKY/WX    TMP DP  RH WIND       PRES   REMARKS
GILLETTE       CLOUDY    53  25  33 SW22G29   29.94R
SHERIDAN       CLOUDY    63  29  27 SW16G22   29.88F
BUFFALO WY     CLOUDY    57  22  25 SE7       29.94S
CODY           CLOUDY    53  30  41 SW20G32   30.00F
YELLOWSTONE LA   N/A     34  32  92 VRB5      30.19F
IDAHO FALLS    MOSUNNY   49  34  56 S26G36    30.23F
SALMON         CLOUDY    45  39  79 N5        30.06S
BOISE          CLOUDY    48  40  73 SE13      30.25R
SPOKANE        MOSUNNY   52  40  63 SW28G37   29.88R
$$

REGIONAL REPORTS...ALBERTA

CITY           SKY/WX    TMP DP  RH WIND       PRES   REMARKS
EDMONTON       CLOUDY    36  27  69 W9        29.40R WCI  29
CALGARY        MOSUNNY   50  23  34 W21G28    29.43R
LETHBRIDGE     MOSUNNY   50  36  57 SW30G37   29.51R
MEDICINE HAT   MOSUNNY   50  37  62 SW16G25   29.48R
$$

REGIONAL REPORTS...SASKATCHEWAN

CITY           SKY/WX    TMP DP  RH WIND       PRES   REMARKS
SWIFT CURRENT  MOSUNNY   48  36  61 SW17G23   29.43F
REGINA         CLOUDY    37  30  75 SE10      29.53F WCI  30
SASKATOON      LGT RAIN  34  30  86 SE5       29.47F
$$




USA.gov is the U.S. government's official web portal to all federal, state and local government web resources and services.